Overview Statistics Trail Chart Weather Telemetry Raw packets
 

This is the latest recevied weather packets stored in our database for station/object PA5MB-15. If no packets are shown the sender has not sent any weather packets the latest 10 day(s).

<< 33 34 35 36 37 38 39 >>
Time Temp. Humidity Pressure Rain* Wind** Luminosity Snow
1777807824 16.11° C 97% 1012.4 hPa 1.27 mm - 10 W/m² -
1777807534 16.11° C 96% 1012.4 hPa 1.02 mm - 15 W/m² -
1777807234 15.56° C 96% 1012.4 hPa 1.02 mm - 15 W/m² -
1777806934 16.11° C 97% 1012.4 hPa 1.02 mm - 15 W/m² -
1777806648 16.11° C 97% 1012.4 hPa 0.76 mm - 15 W/m² -
1777806334 15.56° C 96% 1012.5 hPa 0.76 mm - 16 W/m² -
1777806031 15.56° C 96% 1012.5 hPa 0.76 mm - 16 W/m² -
1777805734 15.56° C 96% 1012.5 hPa 0.76 mm - 17 W/m² -
1777805446 15.56° C 96% 1012.5 hPa 0.76 mm - 17 W/m² -
1777805146 15.56° C 96% 1012.4 hPa 1.02 mm - 14 W/m² -
1777804834 15.56° C 96% 1012.4 hPa 0.76 mm - 11 W/m² -
1777804531 15.56° C 96% 1012.4 hPa 1.02 mm - 10 W/m² -
1777804234 15.56° C 96% 1012.5 hPa 0.76 mm - 10 W/m² -
1777803934 15.56° C 96% 1012.5 hPa 0.76 mm - 8 W/m² -
1777803634 15.56° C 97% 1012.5 hPa 0.76 mm - 9 W/m² -
1777803340 15.56° C 97% 1012.4 hPa 1.02 mm - 10 W/m² -
1777803034 15.56° C 97% 1012.5 hPa 1.27 mm - 9 W/m² -
1777802734 15.56° C 96% 1012.5 hPa 1.78 mm - 9 W/m² -
1777802434 15.56° C 96% 1012.5 hPa 2.03 mm - 8 W/m² -
1777802134 15.56° C 96% 1012.5 hPa 2.03 mm - 7 W/m² -
1777801834 15.56° C 96% 1012.5 hPa 2.03 mm - 5 W/m² -
1777801544 15.56° C 96% 1012.6 hPa 1.78 mm - 5 W/m² -
1777801247 15.56° C 97% 1012.6 hPa 1.78 mm - 5 W/m² -
1777800922 15.56° C 97% 1012.6 hPa 1.52 mm - 3 W/m² -
1777800634 16.11° C 97% 1012.6 hPa 1.52 mm - 2 W/m² -

* Rain latest hour (hover to see other rain measurements)
** Current wind speed in m/s (hover to see current wind gust speed)